EHI
0 0 0 0 0 0 0 0 0 0 0 0 0 0 0 0 0 0 0 1 2 3 3 2 1 0 0 0 1 2 1 1 0 0 0 0 1 0 0 0 0 0 0 0
0 0 0 0 0 0 0 0 0 0 0 0 0 0 0 0 0 0 0 0 1 2 3 3 1 1 1 1 1 1 1 1 0 0 0 1 2 2 1 1 1 0 0 0
0 0 0 0 0 0 0 0 0 0 0 0 0 0 0 0 0 0 0 0 0 1 2 2 1 2 2 2 1 1 1 1 0 0 1 2 3 4 4 3 3 2 1 0
0 0 0 0 0 0 0 0 0 0 0 0 0 0 0 0 0 0 0 0 0 0 0 1 2 3 3 2 1 1 2 1 1 1 1 2 4 5 5 5 5 4 2 1
0 0 0 0 0 0 0 0 0 0 0 0 0 0 0 0 0 0 0 0 0 0 0 0 1 2 3 3 2 2 2 2 2 2 2 3 3 4 4 5 5 5 3 1
0 0 0 0 0 0 0 0 0 0 0 0 0 0 0 0 0 0 0 0 0 0 0 0 0 1 3 5 4 2 2 2 2 2 3 3 3 3 3 2 2 3 2 1
0 0 0 0 0 0 0 0 0 0 0 0 0 0 0 0 0 0 0 0 0 0 0 0 0 1 5 8 7 3 1 1 1 1 2 3 3 3 2 1 1 2 3 2
0 0 0 0 0 0 0 0 0 0 0 0 0 0 0 0 0 0 0 0 0 0 0 0 1 2 5 8 7 4 1 1 1 0 1 1 2 3 3 1 2 3 3 2
0 0 0 0 0 0 0 0 0 0 0 0 0 0 0 0 0 0 0 0 0 0 0 0 1 3 5 6 7 5 2 2 2 1 0 0 1 2 2 2 3 3 2 1
0 0 0 0 0 0 0 0 0 0 0 0 0 0 0 0 0 0 0 0 0 0 0 0 1 2 4 5 6 5 2 1 2 1 0 0 0 1 1 1 2 3 2 1
0 0 0 0 0 0 0 0 0 0 0 0 0 0 0 0 0 0 0 0 0 0 0 0 0 1 2 3 5 3 1 1 2 2 1 0 0 0 0 0 1 1 2 1
0 0 0 0 0 0 0 0 0 0 0 0 0 0 0 0 0 0 0 0 0 0 0 0 0 0 1 2 2 1 0 0 1 2 2 1 0 0 0 0 0 0 1 1
0 0 0 0 0 0 0 0 0 0 0 0 0 0 0 0 0 0 0 0 0 0 0 0 0 0 0 1 1 0 0 1 2 2 2 1 0 0 0 0 0 0 0 1
0 0 0 0 0 0 0 0 0 0 0 0 0 0 0 0 0 0 1 1 0 0 0 0 0 0 0 0 0 0 1 2 2 3 2 1 0 0 0 0 0 0 0 0
0 0 0 0 0 0 0 0 0 0 0 0 0 0 0 0 0 0 1 1 0 0 0 0 0 0 0 0 0 0 1 2 3 2 1 1 0 0 0 0 0 0 0 0
0 0 0 0 0 0 0 0 0 0 0 0 0 0 0 0 0 0 1 1 0 0 0 0 0 0 0 0 0 0 0 2 3 2 1 0 0 0 0 0 0 0 0 0
0 0 0 0 0 0 0 0 0 0 0 0 0 0 0 0 0 0 0 0 0 0 0 0 0 0 0 0 0 0 1 2 2 1 0 0 0 0 0 0 0 0 0 0
0 0 0 0 0 0 0 0 0 0 0 0 0 0 0 0 0 0 0 0 0 0 0 0 0 0 0 0 0 1 2 2 1 0 0 0 0 0 0 0 0 0 0 0
0 0 0 0 0 0 0 0 0 0 0 0 0 0 0 0 0 0 0 0 0 0 0 0 0 0 0 0 0 1 2 2 1 0 0 0 0 0 0 0 0 0 0 0
0 0 0 0 0 0 0 0 0 0 0 0 0 0 0 0 0 0 0 0 0 0 0 0 0 0 0 0 1 2 2 1 0 0 0 0 0 1 1 1 0 0 0 0
0 0 0 0 0 0 0 0 0 0 0 0 0 0 0 0 0 0 0 0 0 0 0 0 0 0 0 0 1 1 1 0 0 0 0 0 1 2 2 1 0 0 0 0
0 0 0 0 0 0 0 0 0 0 0 0 0 0 0 0 0 0 0 0 0 0 0 0 0 0 0 0 0 0 0 0 0 0 0 0 1 3 3 2 0 0 0 0
0 0 0 0 0 0 0 0 0 0 0 0 0 0 0 0 0 0 0 0 0 0 0 0 0 0 0 0 0 0 0 0 0 0 0 1 2 3 2 1 0 0 0 0
0 0 0 0 0 0 0 0 0 0 0 0 0 0 0 0 0 0 0 0 0 0 0 0 0 0 0 0 0 0 0 0 0 0 1 2 3 3 1 0 0 0 0 0
0 0 0 0 0 0 0 0 0 0 0 0 0 0 0 0 0 0 0 0 0 0 0 0 0 0 0 0 0 0 0 0 0 0 1 2 3 2 1 0 0 0 0 0
0 0 0 0 0 0 0 0 0 0 0 0 0 0 0 0 0 0 0 0 0 0 0 0 0 0 0 0 0 0 0 0 0 0 1 2 3 1 0 0 0 0 0 0
Wind_Speed
6 6 5 4 5 6 7 7 4 2 2 3 4 4 4 5 5 5 6 6 7 7 7 6 6 5 4 4 4 5 5 4 4 2 2 2 2 2 2 2 3 3 3 3
6 6 4 3 4 7 8 7 5 3 3 4 4 5 4 5 6 5 4 5 6 6 8 7 7 5 4 4 4 5 4 4 4 2 2 2 2 2 2 2 2 2 2 2
7 3 3 5 7 8 8 6 6 6 5 7 6 5 4 5 5 5 4 3 5 5 7 8 7 6 5 4 3 4 4 5 4 3 2 2 2 1 2 2 1 1 2 2
7 5 5 7 8 8 6 4 6 7 6 5 5 3 4 5 6 7 5 4 4 5 6 7 7 7 6 5 4 5 5 5 4 4 3 2 2 2 2 2 2 2 2 2
6 5 6 8 7 7 5 6 8 9 8 8 8 5 3 5 6 7 7 5 4 5 6 7 7 6 6 5 4 3 4 4 4 3 3 2 2 1 2 2 2 2 2 2
9 6 6 6 6 6 6 8 10 8 6 8 7 5 2 3 5 6 6 6 5 5 5 5 6 6 5 5 4 3 4 4 4 3 3 3 3 2 2 2 2 1 1 1
10 9 7 5 6 5 6 6 4 4 5 5 4 3 2 4 5 5 6 5 6 6 6 6 6 6 5 5 4 4 4 4 4 3 3 3 3 2 3 2 2 2 2 2
9 7 7 5 5 5 6 7 5 4 4 3 3 2 4 8 6 5 5 5 5 5 6 6 6 6 6 6 5 5 5 4 4 3 3 2 3 2 2 2 2 2 2 2
6 3 5 4 4 7 6 5 6 7 9 7 3 2 5 6 6 5 5 6 4 4 5 6 6 6 6 6 6 5 5 5 4 4 3 3 3 2 2 2 1 1 1 2
7 6 4 4 4 7 9 7 5 4 4 5 3 2 3 6 5 5 4 4 4 4 4 5 5 5 5 6 6 5 5 5 5 4 3 2 2 2 2 1 1 2 2 2
8 8 6 5 6 7 7 7 6 5 4 4 3 1 2 5 5 5 4 4 4 4 4 4 5 4 5 5 5 5 4 4 5 4 3 3 2 2 2 2 1 1 2 2
4 6 7 7 5 5 6 7 7 5 5 5 4 1 1 4 4 4 3 3 4 3 3 4 4 4 4 5 5 5 5 4 4 4 3 3 3 2 1 2 2 2 2 2
3 5 7 4 4 4 5 7 7 6 6 5 5 1 1 2 3 3 3 2 3 3 3 3 3 4 3 4 4 4 4 4 4 4 3 3 4 3 2 2 2 2 2 2
4 7 9 8 5 3 6 8 8 7 6 6 6 4 3 1 1 2 2 2 2 3 3 3 2 3 3 3 3 3 3 3 4 3 3 3 3 3 3 2 2 1 1 2
6 9 11 11 10 9 9 10 9 10 9 9 8 7 4 2 1 1 2 2 2 3 2 2 2 2 3 3 3 3 3 4 4 4 4 3 3 2 2 2 1 1 1 1
7 8 10 11 11 10 12 12 11 11 10 10 10 8 5 3 2 1 1 2 2 2 2 1 1 2 3 4 4 3 3 4 4 4 4 3 2 2 2 2 2 1 1 1
7 9 10 9 10 11 12 10 10 9 9 9 8 5 3 2 2 0 2 3 2 2 1 1 1 1 2 3 4 4 4 3 4 3 3 2 2 2 2 2 2 2 2 2
9 9 7 8 9 12 5 4 5 6 7 5 4 3 3 3 1 1 3 3 3 2 2 1 0 0 0 1 1 3 3 4 4 3 3 3 3 2 2 2 2 2 2 2
9 8 6 6 9 10 7 4 3 5 5 3 4 3 2 2 1 1 3 3 2 2 2 1 0 1 1 1 1 1 2 3 3 3 3 4 3 3 2 3 2 2 2 2
8 7 7 7 8 8 3 3 3 3 3 3 3 3 2 2 1 1 3 3 3 3 2 1 1 1 1 1 1 1 1 1 2 2 2 2 3 3 3 3 2 2 1 2
6 6 8 9 9 6 3 3 2 3 2 4 4 2 2 1 1 2 3 3 2 2 2 2 1 1 1 1 1 1 1 0 1 1 2 2 2 2 2 2 1 1 1 1
7 6 7 7 9 5 2 2 2 4 4 4 5 4 3 3 4 3 3 2 2 1 1 1 1 1 1 1 1 0 0 0 1 1 1 2 2 2 2 2 2 1 1 1
7 5 3 4 3 1 1 1 3 5 6 5 5 4 3 3 1 2 1 1 1 1 0 1 0 0 0 0 0 0 0 0 1 1 1 1 2 2 2 2 2 2 2 2
7 6 7 7 5 3 4 3 4 6 7 6 6 5 4 3 2 1 1 1 1 1 1 1 1 1 1 1 1 1 1 1 1 2 2 2 2 2 2 1 2 2 2 2
7 7 8 10 7 5 5 5 6 6 7 8 7 6 5 4 4 3 2 1 1 2 1 1 1 1 2 1 1 1 2 1 1 2 2 2 2 2 2 2 2 2 2 3
8 9 9 8 7 7 7 7 7 7 7 7 8 7 5 5 4 4 3 2 2 2 2 2 2 2 2 2 1 1 1 2 2 2 1 1 2 2 2 2 1 1 2 3
Wind_Direction
216 234 239 243 255 275 284 288 298 292 245 254 253 246 230 201 184 193 188 179 170 163 159 150 148 145 138 131 131 127 131 121 103 94 95 98 101 96 76 75 72 56 55 66
230 231 242 259 257 266 277 287 295 291 269 274 265 256 237 201 189 194 194 178 169 160 154 147 153 147 145 138 136 131 130 120 117 121 129 133 118 114 114 86 74 70 61 60
244 245 233 244 249 259 268 278 294 301 292 269 261 250 219 191 183 174 176 173 165 161 155 156 157 147 143 136 137 127 126 122 128 128 103 104 112 128 110 105 92 76 83 68
245 234 247 253 260 271 279 296 297 291 284 274 252 262 218 185 175 165 164 169 169 158 156 152 154 153 152 147 149 140 131 133 129 129 129 141 140 135 140 141 150 140 111 104
243 240 245 254 264 277 286 299 288 281 281 280 264 257 204 174 170 163 161 163 162 153 154 152 156 154 149 144 139 133 130 127 122 130 146 160 133 136 141 134 137 135 126 136
254 250 249 265 270 271 286 284 273 261 262 260 253 245 181 169 154 150 153 160 157 148 142 141 138 134 132 132 135 136 132 123 128 150 163 167 157 147 136 138 148 150 149 162
237 230 224 242 261 247 262 275 283 249 228 248 250 231 141 117 109 120 134 142 147 149 148 144 137 140 137 140 146 150 142 141 150 176 179 165 160 166 158 171 179 173 169 173
249 227 202 206 247 266 259 263 273 290 290 291 256 223 116 109 107 107 123 129 134 138 141 147 151 153 151 153 159 163 161 161 167 189 188 163 153 172 166 189 190 181 174 172
286 245 176 200 247 268 271 263 277 290 292 285 254 157 124 120 131 130 128 127 132 138 138 143 149 155 155 160 167 173 170 172 178 196 191 178 172 177 168 194 195 174 169 171
280 284 239 184 225 245 261 284 287 274 289 290 275 236 159 156 145 135 133 139 142 144 143 146 149 161 164 167 172 179 185 178 177 190 194 176 169 177 175 186 199 192 181 169
281 273 251 210 222 247 236 252 267 276 273 288 303 1 88 143 138 141 146 142 141 147 150 145 149 159 161 161 171 180 185 178 174 184 191 167 176 195 183 181 206 208 190 178
265 283 269 246 231 240 262 259 258 265 276 281 288 297 20 99 119 133 131 128 130 130 132 133 143 154 165 172 180 179 179 180 176 179 182 169 174 184 194 186 195 213 208 188
323 276 277 254 213 209 245 261 268 278 279 274 276 240 182 106 114 112 114 118 125 133 130 131 142 159 166 173 179 177 176 170 162 169 182 178 179 185 196 197 205 207 199 185
283 263 264 270 285 273 256 264 268 268 269 274 274 266 245 246 87 113 128 129 121 139 134 137 152 163 162 169 175 172 162 157 159 166 182 189 190 182 188 199 197 210 201 182
247 259 266 276 283 280 270 260 258 259 265 270 283 287 284 282 262 210 147 132 120 128 134 144 160 158 155 163 169 163 161 169 172 174 185 191 197 181 173 171 168 195 229 217
243 263 275 278 276 272 268 261 257 258 262 266 274 277 284 299 279 237 132 124 125 123 122 141 169 159 170 177 178 173 175 179 173 172 174 176 182 160 158 169 177 201 219 209
253 262 271 274 278 276 261 254 253 253 255 262 270 284 295 289 288 261 107 114 119 111 111 146 181 168 192 188 176 175 181 170 160 158 157 156 155 149 165 176 179 199 203 196
260 259 260 270 272 263 268 283 268 265 269 272 276 291 298 303 337 61 97 110 126 131 138 149 172 123 165 127 146 167 169 165 159 159 168 167 168 168 171 183 201 202 206 214
249 254 261 260 263 266 270 279 298 280 279 295 293 296 313 333 304 108 71 81 92 109 120 125 116 100 68 61 66 140 158 154 158 169 179 173 170 171 182 189 196 197 207 218
238 238 246 253 258 263 287 357 342 299 278 3 7 12 17 12 286 75 45 57 71 69 75 85 68 71 70 76 101 100 125 137 165 177 176 172 173 174 181 188 189 192 199 202
221 231 238 249 256 261 320 355 335 276 1 24 21 27 348 308 11 30 46 49 64 70 63 60 60 73 66 55 97 145 136 202 183 146 158 169 168 171 173 177 178 177 182 180
236 230 236 243 248 254 20 10 351 351 3 0 4 8 9 23 30 32 42 34 41 54 74 66 43 50 57 79 93 73 147 175 96 106 146 173 165 167 162 157 173 185 187 191
248 244 252 251 254 336 337 357 356 338 323 331 340 346 358 349 0 7 14 7 356 319 179 157 172 165 33 132 174 210 319 132 140 155 180 180 159 148 157 167 175 184 195 200
273 280 267 263 263 283 296 315 342 332 325 331 340 340 341 325 321 323 299 296 306 277 267 209 198 204 219 225 240 222 188 171 182 194 198 190 178 165 154 161 172 179 198 203
281 285 276 273 280 281 283 315 323 321 322 322 326 328 325 319 308 296 283 267 262 270 243 229 224 243 238 229 230 219 183 178 212 225 208 194 179 171 173 179 183 190 196 194
268 271 267 274 294 294 294 301 311 313 311 313 312 310 308 300 292 288 283 269 252 256 251 238 227 239 245 242 236 233 205 194 212 239 231 206 179 174 178 179 178 221 199 189